Altus, OK

11:35 AM CDT on August 24, 2016 (GMT -0500)
Altus Air Force Base

Weather History for KLTS - June, 2013

Change the Weather History Date:

Wednesday, June 26, 2013

  Actual Average Record
Temperature  
Mean Temperature 90 °F -  
Max Temperature 105 °F 90 °F 111 °F (2011)
Min Temperature 75 °F 68 °F 60 °F (2003)
Cooling Degree Days 25    
Growing Degree Days 40 (Base 50)    
Moisture  
Dew Point 65 °F    
Average Humidity 42    
Maximum Humidity 67    
Minimum Humidity 26    
Precipitation  
Precipitation 0.00 in - - ()
Sea Level Pressure  
Sea Level Pressure 29.80 in    
Wind  
Wind Speed 11 mph (SSE)    
Max Wind Speed 22 mph    
Max Gust Speed 29 mph    
Visibility 10 miles    
Events      
Averages and records for this station are not official NWS values.
T = Trace of Precipitation, MM = Missing Value Source: NWS Daily Summary

Daily Weather History Graph

Daily Weather History Graph

Search for Another Location

Airport or City:

Trip Planner

Search our weather history database for the weather conditions in past years. The results will help you decide how hot, cold, wet, or windy it might be!

Date:

Astronomy

Jun. 26, 2013 Rise Set
Actual Time 6:25 AM CDT 8:54 PM CDT
Civil Twilight 5:56 AM CDT 9:23 PM CDT
Nautical Twilight 5:19 AM CDT 10:00 PM CDT
Astronomical Twilight 4:39 AM CDT 10:40 PM CDT
Moon 11:29 PM CDT (6/26) 10:09 AM CDT (6/26)
Length of Visible Light 15h 27m
Length of Day
14h 28m
Waning Gibbous, 85% of the Moon is Illuminated
Jun 26
Waning Gibbous
Jun 29
Last Quarter
Jul 8
New
Jul 15
First Quarter
Jul 22
Full

Hourly Weather History & Observations

Time (CDT) Temp. Heat Index Dew Point Humidity Pressure Visibility Wind Dir Wind Speed Gust Speed Precip Events Conditions
12:58 AM 83.7 °F 84.1 °F 61.3 °F 47% 29.75 in 10.0 mi SE 8.1 mph - N/A   Clear
1:58 AM 81.1 °F 82.0 °F 61.3 °F 51% 29.73 in 10.0 mi SSE 8.1 mph - N/A   Clear
2:58 AM 81.1 °F 82.0 °F 61.3 °F 51% 29.73 in 10.0 mi SE 5.8 mph - N/A   Clear
3:58 AM 78.1 °F - 61.5 °F 57% 29.75 in 10.0 mi SE 5.8 mph - N/A   Clear
4:58 AM 76.8 °F - 62.4 °F 61% 29.75 in 10.0 mi SE 6.9 mph - N/A   Clear
5:58 AM 76.5 °F - 63.3 °F 64% 29.76 in 10.0 mi SE 5.8 mph - N/A   Clear
6:58 AM 75.2 °F - 63.7 °F 67% 29.78 in 10.0 mi South 6.9 mph - N/A   Clear
7:58 AM 81.1 °F 82.9 °F 64.9 °F 58% 29.80 in 10.0 mi SE 13.8 mph - N/A   Clear
8:14 AM 82.4 °F 83.9 °F 64.4 °F 54% 29.85 in 10.0 mi South 15.0 mph - N/A   Clear
8:58 AM 86.4 °F 88.1 °F 65.3 °F 49% 29.80 in 10.0 mi South 16.1 mph - N/A   Clear
9:58 AM 90.1 °F 92.3 °F 65.5 °F 44% 29.81 in 10.0 mi South 16.1 mph - N/A   Clear
10:58 AM 93.4 °F 96.1 °F 65.5 °F 40% 29.80 in 10.0 mi South 17.3 mph - N/A   Clear
11:58 AM 96.4 °F 99.4 °F 65.1 °F 36% 29.81 in 10.0 mi South 12.7 mph - N/A   Clear
12:58 PM 99.7 °F 103.6 °F 65.5 °F 33% 29.81 in 10.0 mi SSW 12.7 mph - N/A   Partly Cloudy
1:09 PM 100.4 °F 104.9 °F 66.2 °F 33% 29.87 in 10.0 mi SSW 13.8 mph 21.9 mph N/A   Clear
1:43 PM 100.4 °F 104.9 °F 66.2 °F 33% 29.86 in 10.0 mi SE 17.3 mph 23.0 mph N/A   Partly Cloudy
1:58 PM 100.9 °F 106.0 °F 66.6 °F 33% 29.80 in 10.0 mi SSE 16.1 mph 23.0 mph N/A   Partly Cloudy
2:02 PM 100.4 °F 104.9 °F 66.2 °F 33% 29.86 in 10.0 mi South 13.8 mph 21.9 mph N/A   Light Drizzle
2:05 PM 100.4 °F 104.9 °F 66.2 °F 33% 29.86 in 10.0 mi SSE 15.0 mph 21.9 mph N/A   Partly Cloudy
2:28 PM 102.2 °F 106.9 °F 66.2 °F 31% 29.85 in 10.0 mi SE 15.0 mph 24.2 mph N/A   Partly Cloudy
2:58 PM 102.6 °F 107.6 °F 66.2 °F 31% 29.78 in 10.0 mi SSE 15.0 mph - N/A   Clear
3:58 PM 104.4 °F 108.8 °F 65.7 °F 28% 29.77 in 10.0 mi SSE 15.0 mph 25.3 mph N/A   Clear
4:25 PM 104.0 °F 107.4 °F 64.4 °F 27% 29.82 in 10.0 mi South 18.4 mph - N/A   Clear
4:58 PM 105.1 °F 109.3 °F 64.4 °F 27% 29.76 in 10.0 mi SSE 18.4 mph 28.8 mph N/A   Clear
5:58 PM 104.2 °F 107.0 °F 62.6 °F 26% 29.76 in 10.0 mi South 19.6 mph 24.2 mph N/A   Clear
6:58 PM 102.7 °F 107.2 °F 65.5 °F 30% 29.75 in 10.0 mi SSE 21.9 mph 27.6 mph N/A   Clear
7:58 PM 100.4 °F 103.0 °F 63.9 °F 30% 29.76 in 10.0 mi SSE 17.3 mph 25.3 mph N/A   Clear
8:58 PM 95.4 °F 98.1 °F 65.7 °F 37% 29.77 in 10.0 mi SE 13.8 mph - N/A   Clear
9:58 PM 91.0 °F 93.8 °F 66.0 °F 44% 29.80 in 10.0 mi ESE 11.5 mph - N/A   Clear
10:58 PM 89.1 °F 91.0 °F 64.9 °F 45% 29.83 in 10.0 mi ESE 10.4 mph - N/A   Clear
11:58 PM 84.9 °F 87.9 °F 67.8 °F 56% 29.84 in 10.0 mi East 10.4 mph - N/A   Clear